Location: Rancho Del Sol Observatory
(38.7214°N, 120.6350°W)
Time: 00:39:03
(UTC-08:00)

S-56A Canister/Altair - Visible Passes

Search period start: 27 January 2020 00:00
Search period end: 06 February 2020 00:00
Orbit: 634 x 2498 km, 38.9° (Epoch: 26 January)

Date Brightness Start Highest point End Pass type
(mag) Time Alt. Az. Time Alt. Az. Time Alt. Az.
27 Jan 8.0 19:23:06 10° WSW 19:30:56 61° SSE 19:31:40 57° SE visible
27 Jan 10.6 21:28:45 10° W 21:29:06 12° W 21:29:06 12° W visible
28 Jan 8.4 18:49:45 10° SW 18:58:12 57° SSE 19:00:53 33° E visible
28 Jan 9.9 20:55:34 10° W 20:58:20 24° W 20:58:20 24° W visible
29 Jan 8.8 18:16:23 10° SW 18:25:26 54° SSE 18:30:05 18° E visible
29 Jan 8.8 20:22:18 10° W 20:27:31 45° W 20:27:31 45° W visible
30 Jan 9.1 17:42:57 10° SW 17:52:35 51° SSE 17:59:00 10° E visible
30 Jan 7.9 19:48:56 10° W 19:56:42 84° SW 19:56:42 84° SW visible
31 Jan 8.0 19:15:28 10° WSW 19:24:09 85° S 19:25:53 52° E visible
31 Jan 10.3 21:21:43 10° W 21:23:18 17° W 21:23:18 17° W visible
01 Feb 8.4 18:41:54 10° WSW 18:51:22 82° SSE 18:55:02 28° E visible
01 Feb 9.5 20:48:28 10° W 20:52:27 32° W 20:52:27 32° W visible
02 Feb 8.6 18:08:18 10° WSW 18:18:30 79° SSE 18:24:11 15° E visible
02 Feb 8.4 20:15:07 10° W 20:21:37 60° W 20:21:37 60° W visible
03 Feb 7.9 19:41:39 10° W 19:50:13 89° N 19:50:46 77° E visible
03 Feb 10.7 21:47:52 10° W 21:48:12 11° W 21:48:12 11° W visible
04 Feb 8.3 19:08:05 10° W 19:17:25 88° N 19:19:56 42° E visible
04 Feb 10.0 21:14:36 10° W 21:17:22 23° W 21:17:22 23° W visible
05 Feb 8.5 18:34:25 10° W 18:44:33 88° N 18:49:06 23° E visible
05 Feb 9.1 20:41:15 10° W 20:46:32 41° W 20:46:32 41° W visible
